Time,TemperatureF,DewpointF,PressureIn,WindDirection,WindDirectionDegrees,WindSpeedMPH,WindSpeedGustMPH,Humidity,HourlyPrecipIn,Conditions,Clouds,dailyrainin,SoftwareType,DateUTC
2013-03-29 00:02:00,41.5,27.3,28.79,ESE,113,0.0,0.0,57,0.00,,,0.00,WUHU216HW,2013-03-29 05:02:00,
2013-03-29 00:07:00,41.5,27.3,28.79,ESE,113,0.0,0.0,57,0.00,,,0.00,WUHU216HW,2013-03-29 05:07:00,
2013-03-29 00:12:00,41.7,27.3,28.79,ESE,113,0.0,0.0,58,0.00,,,0.00,WUHU216HW,2013-03-29 05:12:00,
2013-03-29 00:17:00,41.7,27.9,28.79,SE,135,0.0,0.0,58,0.00,,,0.00,WUHU216HW,2013-03-29 05:17:00,
2013-03-29 00:22:00,41.7,27.9,28.79,SE,135,0.0,0.0,58,0.00,,,0.00,WUHU216HW,2013-03-29 05:22:00,
2013-03-29 00:27:00,41.7,28.4,28.79,SE,135,0.0,0.0,59,0.00,,,0.00,WUHU216HW,2013-03-29 05:27:00,
2013-03-29 00:32:00,41.5,28.2,28.79,SE,135,0.0,0.0,59,0.00,,,0.00,WUHU216HW,2013-03-29 05:32:00,
2013-03-29 00:38:00,41.1,27.9,28.79,SE,135,0.0,0.0,59,0.00,,,0.00,WUHU216HW,2013-03-29 05:38:00,
2013-03-29 00:43:00,40.8,27.5,28.79,SE,135,0.0,0.0,59,0.00,,,0.00,WUHU216HW,2013-03-29 05:43:00,
2013-03-29 00:48:00,40.8,28.0,28.79,SE,135,0.0,0.0,60,0.00,,,0.00,WUHU216HW,2013-03-29 05:48:00,
2013-03-29 00:53:00,40.6,27.8,28.79,SE,135,0.0,0.0,60,0.00,,,0.00,WUHU216HW,2013-03-29 05:53:00,
2013-03-29 00:58:00,40.4,28.0,28.79,SE,135,0.0,0.0,61,0.00,,,0.00,WUHU216HW,2013-03-29 05:58:00,
2013-03-29 01:03:00,40.2,27.8,28.79,SE,135,0.0,0.0,61,0.00,,,0.00,WUHU216HW,2013-03-29 06:03:00,
2013-03-29 01:08:00,40.1,27.6,28.79,SE,135,0.0,0.0,61,0.00,,,0.00,WUHU216HW,2013-03-29 06:08:00,
2013-03-29 01:13:00,39.9,27.8,28.79,East,90,0.0,0.0,62,0.00,,,0.00,WUHU216HW,2013-03-29 06:13:00,
2013-03-29 01:18:00,39.9,27.8,28.79,ESE,113,0.0,0.0,62,0.00,,,0.00,WUHU216HW,2013-03-29 06:18:00,
2013-03-29 01:23:00,39.9,27.8,28.78,ESE,113,0.0,0.0,62,0.00,,,0.00,WUHU216HW,2013-03-29 06:23:00,
2013-03-29 01:28:00,39.7,28.0,28.79,ESE,113,0.0,0.0,63,0.00,,,0.00,WUHU216HW,2013-03-29 06:28:00,
2013-03-29 01:33:00,39.5,27.9,28.78,ESE,113,0.0,0.0,63,0.00,,,0.00,WUHU216HW,2013-03-29 06:33:00,
2013-03-29 01:38:00,39.5,28.2,28.78,ESE,113,0.0,0.0,64,0.00,,,0.00,WUHU216HW,2013-03-29 06:38:00,
2013-03-29 01:43:00,39.5,28.2,28.78,ESE,113,0.0,0.0,64,0.00,,,0.00,WUHU216HW,2013-03-29 06:43:00,
2013-03-29 01:48:00,39.5,28.2,28.78,ESE,113,0.0,0.0,64,0.00,,,0.00,WUHU216HW,2013-03-29 06:48:00,
2013-03-29 01:53:00,39.5,28.2,28.78,East,90,0.0,0.0,64,0.00,,,0.00,WUHU216HW,2013-03-29 06:53:00,
2013-03-29 01:58:00,39.5,28.2,28.78,East,90,0.0,0.0,64,0.00,,,0.00,WUHU216HW,2013-03-29 06:58:00,
2013-03-29 02:03:00,39.3,27.7,28.78,East,90,0.0,0.0,64,0.00,,,0.00,WUHU216HW,2013-03-29 07:03:00,
2013-03-29 02:08:00,38.8,27.6,28.78,East,90,0.0,0.0,64,0.00,,,0.00,WUHU216HW,2013-03-29 07:08:00,
2013-03-29 02:13:00,38.6,27.8,28.78,ESE,113,0.0,0.0,65,0.00,,,0.00,WUHU216HW,2013-03-29 07:13:00,
2013-03-29 02:19:00,38.4,27.6,28.78,ESE,113,0.0,0.0,65,0.00,,,0.00,WUHU216HW,2013-03-29 07:19:00,
2013-03-29 02:24:00,38.4,27.6,28.78,ESE,113,0.0,0.0,65,0.00,,,0.00,WUHU216HW,2013-03-29 07:24:00,
2013-03-29 02:29:00,38.3,27.8,28.78,ESE,113,0.0,0.0,66,0.00,,,0.00,WUHU216HW,2013-03-29 07:29:00,
2013-03-29 02:34:00,38.3,27.8,28.78,SE,135,0.0,0.0,66,0.00,,,0.00,WUHU216HW,2013-03-29 07:34:00,
2013-03-29 02:39:00,38.3,27.8,28.78,SE,135,0.0,0.0,66,0.00,,,0.00,WUHU216HW,2013-03-29 07:39:00,
2013-03-29 02:44:00,38.4,28.0,28.77,SE,135,0.0,0.0,66,0.00,,,0.00,WUHU216HW,2013-03-29 07:44:00,
2013-03-29 02:49:00,38.8,28.3,28.78,SE,135,0.0,0.0,66,0.00,,,0.00,WUHU216HW,2013-03-29 07:49:00,
2013-03-29 02:54:00,38.8,28.7,28.77,SE,135,0.0,0.0,67,0.00,,,0.00,WUHU216HW,2013-03-29 07:54:00,
2013-03-29 02:59:00,38.4,28.4,28.77,ESE,113,0.0,0.0,67,0.00,,,0.00,WUHU216HW,2013-03-29 07:59:00,
2013-03-29 03:04:00,38.4,28.4,28.77,ESE,113,0.0,0.0,67,0.00,,,0.00,WUHU216HW,2013-03-29 08:04:00,
2013-03-29 03:09:00,38.3,28.2,28.77,ESE,113,0.0,0.0,67,0.00,,,0.00,WUHU216HW,2013-03-29 08:09:00,
2013-03-29 03:14:00,38.3,28.2,28.77,ESE,113,0.0,0.0,67,0.00,,,0.00,WUHU216HW,2013-03-29 08:14:00,
2013-03-29 03:19:00,38.3,28.6,28.77,ESE,113,0.0,0.0,68,0.00,,,0.00,WUHU216HW,2013-03-29 08:19:00,
2013-03-29 03:24:00,38.1,28.4,28.76,ESE,113,0.0,0.0,68,0.00,,,0.00,WUHU216HW,2013-03-29 08:24:00,
2013-03-29 03:29:00,37.9,28.3,28.76,East,90,0.0,0.0,68,0.00,,,0.00,WUHU216HW,2013-03-29 08:29:00,
2013-03-29 03:34:00,37.9,28.3,28.76,East,90,0.0,0.0,68,0.00,,,0.00,WUHU216HW,2013-03-29 08:34:00,
2013-03-29 03:39:00,37.9,28.3,28.76,East,90,0.0,0.0,68,0.00,,,0.00,WUHU216HW,2013-03-29 08:39:00,
2013-03-29 03:44:00,37.9,28.6,28.76,East,90,0.0,0.0,69,0.00,,,0.00,WUHU216HW,2013-03-29 08:44:00,
2013-03-29 03:50:00,37.7,28.5,28.76,ENE,68,0.0,0.0,69,0.00,,,0.00,WUHU216HW,2013-03-29 08:50:00,
2013-03-29 03:55:00,37.7,28.5,28.76,ENE,68,0.0,0.0,69,0.00,,,0.00,WUHU216HW,2013-03-29 08:55:00,
2013-03-29 04:00:00,37.7,28.5,28.76,ESE,113,0.0,0.0,69,0.00,,,0.00,WUHU216HW,2013-03-29 09:00:00,
2013-03-29 04:05:00,37.5,28.3,28.76,East,90,0.0,0.0,69,0.00,,,0.00,WUHU216HW,2013-03-29 09:05:00,
2013-03-29 04:10:00,37.4,28.5,28.76,East,90,0.0,0.0,70,0.00,,,0.00,WUHU216HW,2013-03-29 09:10:00,
2013-03-29 04:15:00,37.2,28.4,28.76,East,90,0.0,0.0,70,0.00,,,0.00,WUHU216HW,2013-03-29 09:15:00,
2013-03-29 04:20:00,37.2,28.4,28.76,East,90,0.0,0.0,70,0.00,,,0.00,WUHU216HW,2013-03-29 09:20:00,
2013-03-29 04:25:00,37.0,28.2,28.76,ENE,68,0.0,0.0,70,0.00,,,0.00,WUHU216HW,2013-03-29 09:25:00,
2013-03-29 04:30:00,36.8,28.0,28.76,ENE,68,0.0,0.0,70,0.00,,,0.00,WUHU216HW,2013-03-29 09:30:00,
2013-03-29 04:35:00,36.8,28.0,28.76,East,90,0.0,0.0,70,0.00,,,0.00,WUHU216HW,2013-03-29 09:35:00,
2013-03-29 04:40:00,36.6,27.8,28.76,ESE,113,0.0,0.0,70,0.00,,,0.00,WUHU216HW,2013-03-29 09:40:00,
2013-03-29 04:45:00,36.5,27.6,28.76,ESE,113,0.0,0.0,70,0.00,,,0.00,WUHU216HW,2013-03-29 09:45:00,
2013-03-29 04:50:00,36.3,27.5,28.76,ESE,113,0.0,0.0,70,0.00,,,0.00,WUHU216HW,2013-03-29 09:50:00,
2013-03-29 04:55:00,36.1,27.3,28.76,ESE,113,0.0,0.0,70,0.00,,,0.00,WUHU216HW,2013-03-29 09:55:00,
2013-03-29 05:00:00,36.1,27.6,28.76,East,90,0.0,0.0,71,0.00,,,0.00,WUHU216HW,2013-03-29 10:00:00,
2013-03-29 05:06:00,35.9,27.4,28.76,East,90,0.0,0.0,71,0.00,,,0.00,WUHU216HW,2013-03-29 10:06:00,
2013-03-29 05:11:00,35.7,27.6,28.76,East,90,0.0,0.0,72,0.00,,,0.00,WUHU216HW,2013-03-29 10:11:00,
2013-03-29 05:16:00,35.7,27.6,28.76,ESE,113,0.0,0.0,72,0.00,,,0.00,WUHU216HW,2013-03-29 10:16:00,
2013-03-29 05:21:00,35.7,27.6,28.76,ESE,113,0.0,0.0,72,0.00,,,0.00,WUHU216HW,2013-03-29 10:21:00,
2013-03-29 05:26:00,35.9,27.7,28.76,ESE,113,0.0,0.0,72,0.00,,,0.00,WUHU216HW,2013-03-29 10:26:00,
2013-03-29 05:31:00,35.9,28.1,28.76,ESE,113,0.0,0.0,73,0.00,,,0.00,WUHU216HW,2013-03-29 10:31:00,
2013-03-29 05:36:00,35.9,28.1,28.76,ESE,113,0.0,0.0,73,0.00,,,0.00,WUHU216HW,2013-03-29 10:36:00,
2013-03-29 05:41:00,35.9,28.1,28.76,ESE,113,0.0,0.0,73,0.00,,,0.00,WUHU216HW,2013-03-29 10:41:00,
2013-03-29 05:46:00,36.1,28.2,28.76,SE,135,1.5,1.5,73,0.00,,,0.00,WUHU216HW,2013-03-29 10:46:00,
2013-03-29 05:52:00,36.3,28.4,28.76,SE,135,5.3,5.3,73,0.00,,,0.00,WUHU216HW,2013-03-29 10:52:00,
2013-03-29 05:57:00,36.3,28.7,28.76,SE,135,0.0,5.3,74,0.00,,,0.00,WUHU216HW,2013-03-29 10:57:00,
2013-03-29 06:02:00,36.6,28.8,28.76,SE,135,0.0,5.3,73,0.00,,,0.00,WUHU216HW,2013-03-29 11:02:00,
2013-03-29 06:07:00,36.5,28.6,28.76,SE,135,0.0,0.0,73,0.00,,,0.00,WUHU216HW,2013-03-29 11:07:00,
2013-03-29 06:12:00,36.3,28.4,28.76,SE,135,0.0,0.0,73,0.00,,,0.00,WUHU216HW,2013-03-29 11:12:00,
2013-03-29 06:17:00,36.3,28.4,28.77,SE,135,0.0,0.0,73,0.00,,,0.00,WUHU216HW,2013-03-29 11:17:00,
2013-03-29 06:22:00,36.3,28.4,28.77,SE,135,0.0,0.0,73,0.00,,,0.00,WUHU216HW,2013-03-29 11:22:00,
2013-03-29 06:27:00,36.1,28.2,28.77,SE,135,0.0,0.0,73,0.00,,,0.00,WUHU216HW,2013-03-29 11:27:00,
2013-03-29 06:32:00,35.7,27.9,28.77,SE,135,0.0,0.0,73,0.00,,,0.00,WUHU216HW,2013-03-29 11:32:00,
2013-03-29 06:38:00,35.7,27.9,28.78,SE,135,0.0,0.0,73,0.00,,,0.00,WUHU216HW,2013-03-29 11:38:00,
2013-03-29 06:43:00,35.4,27.5,28.78,SE,135,0.0,0.0,73,0.00,,,0.00,WUHU216HW,2013-03-29 11:43:00,
2013-03-29 06:48:00,35.4,27.8,28.78,SE,135,0.0,5.5,74,0.00,,,0.00,WUHU216HW,2013-03-29 11:48:00,
2013-03-29 06:53:00,35.2,27.7,28.78,SE,135,0.0,5.5,74,0.00,,,0.00,WUHU216HW,2013-03-29 11:53:00,
2013-03-29 06:58:00,35.2,27.7,28.78,SE,135,0.0,0.0,74,0.00,,,0.00,WUHU216HW,2013-03-29 11:58:00,
2013-03-29 07:03:00,34.8,27.3,28.78,SE,135,0.0,0.0,74,0.00,,,0.00,WUHU216HW,2013-03-29 12:03:00,
2013-03-29 07:08:00,34.8,27.3,28.78,SE,135,0.0,0.0,74,0.00,,,0.00,WUHU216HW,2013-03-29 12:08:00,
2013-03-29 07:13:00,34.8,27.3,28.78,SE,135,0.0,3.8,74,0.00,,,0.00,WUHU216HW,2013-03-29 12:13:00,
2013-03-29 07:18:00,34.7,27.5,28.78,ESE,113,0.0,3.8,75,0.00,,,0.00,WUHU216HW,2013-03-29 12:18:00,
2013-03-29 07:23:00,34.3,27.1,28.78,ESE,113,0.0,0.0,75,0.00,,,0.00,WUHU216HW,2013-03-29 12:23:00,
2013-03-29 07:28:00,34.3,27.1,28.78,ESE,113,0.0,0.0,75,0.00,,,0.00,WUHU216HW,2013-03-29 12:28:00,
2013-03-29 07:33:00,34.3,27.1,28.78,SE,135,0.0,0.0,75,0.00,,,0.00,WUHU216HW,2013-03-29 12:33:00,
2013-03-29 07:39:00,34.3,27.4,28.79,SE,135,0.0,0.0,76,0.00,,,0.00,WUHU216HW,2013-03-29 12:39:00,
2013-03-29 07:44:00,34.3,27.4,28.79,SE,135,0.0,0.0,76,0.00,,,0.00,WUHU216HW,2013-03-29 12:44:00,
2013-03-29 07:49:00,34.3,27.4,28.79,SE,135,0.0,0.0,76,0.00,,,0.00,WUHU216HW,2013-03-29 12:49:00,
2013-03-29 07:54:00,34.3,27.4,28.79,SE,135,0.0,3.5,76,0.00,,,0.00,WUHU216HW,2013-03-29 12:54:00,
2013-03-29 07:59:00,34.3,27.4,28.80,SE,135,0.0,3.5,76,0.00,,,0.00,WUHU216HW,2013-03-29 12:59:00,
2013-03-29 08:04:00,34.7,27.8,28.80,SE,135,2.4,2.4,76,0.00,,,0.00,WUHU216HW,2013-03-29 13:04:00,
2013-03-29 08:09:00,35.2,28.3,28.80,SE,135,0.0,4.4,76,0.00,,,0.00,WUHU216HW,2013-03-29 13:09:00,
2013-03-29 08:14:00,35.6,28.7,28.80,SE,135,3.8,5.1,76,0.00,,,0.00,WUHU216HW,2013-03-29 13:14:00,
2013-03-29 08:19:00,35.9,29.0,28.80,SE,135,5.3,5.3,76,0.00,,,0.00,WUHU216HW,2013-03-29 13:19:00,
2013-03-29 08:24:00,36.6,29.8,28.80,SE,135,0.0,5.3,76,0.00,,,0.00,WUHU216HW,2013-03-29 13:24:00,
2013-03-29 08:29:00,37.2,30.3,28.80,ESE,113,0.0,5.3,76,0.00,,,0.00,WUHU216HW,2013-03-29 13:29:00,
2013-03-29 08:34:00,37.7,30.5,28.80,SSE,158,4.4,4.4,75,0.00,,,0.00,WUHU216HW,2013-03-29 13:34:00,
2013-03-29 08:40:00,38.1,30.8,28.80,SE,135,4.2,4.4,75,0.00,,,0.00,WUHU216HW,2013-03-29 13:40:00,
2013-03-29 08:45:00,38.8,31.8,28.80,SSE,158,4.4,4.4,76,0.00,,,0.00,WUHU216HW,2013-03-29 13:45:00,
2013-03-29 08:50:00,39.3,32.0,28.80,SSE,158,3.8,9.8,75,0.00,,,0.00,WUHU216HW,2013-03-29 13:50:00,
2013-03-29 08:55:00,39.9,32.5,28.80,SSE,158,4.4,9.8,75,0.00,,,0.00,WUHU216HW,2013-03-29 13:55:00,
2013-03-29 09:00:00,40.6,33.2,28.80,SE,135,5.3,5.3,75,0.00,,,0.00,WUHU216HW,2013-03-29 14:00:00,
2013-03-29 09:05:00,41.5,33.8,28.80,SSE,158,6.0,6.0,74,0.00,,,0.00,WUHU216HW,2013-03-29 14:05:00,
2013-03-29 09:10:00,41.9,34.1,28.80,SSE,158,5.8,6.0,74,0.00,,,0.00,WUHU216HW,2013-03-29 14:10:00,
2013-03-29 09:15:00,42.6,34.9,28.80,SE,135,0.0,6.0,74,0.00,,,0.00,WUHU216HW,2013-03-29 14:15:00,
2013-03-29 09:20:00,43.5,35.4,28.80,SSE,158,6.0,6.0,73,0.00,,,0.00,WUHU216HW,2013-03-29 14:20:00,
2013-03-29 09:25:00,44.2,36.1,28.81,SSE,158,5.3,6.0,73,0.00,,,0.00,WUHU216HW,2013-03-29 14:25:00,
2013-03-29 09:30:00,44.9,36.4,28.81,SSE,158,3.3,6.0,72,0.00,,,0.00,WUHU216HW,2013-03-29 14:30:00,
2013-03-29 09:35:00,45.6,36.8,28.81,SSE,158,4.9,7.8,71,0.00,,,0.00,WUHU216HW,2013-03-29 14:35:00,
2013-03-29 09:40:00,46.2,37.3,28.81,SE,135,6.0,7.8,71,0.00,,,0.00,WUHU216HW,2013-03-29 14:40:00,
2013-03-29 09:45:00,46.9,37.7,28.81,SE,135,4.6,6.4,70,0.00,,,0.00,WUHU216HW,2013-03-29 14:45:00,
2013-03-29 09:50:00,47.4,37.7,28.81,SSE,158,4.2,5.5,69,0.00,,,0.00,WUHU216HW,2013-03-29 14:50:00,
2013-03-29 09:55:00,48.0,38.2,28.81,SE,135,6.9,6.9,69,0.00,,,0.00,WUHU216HW,2013-03-29 14:55:00,
2013-03-29 10:00:00,48.5,38.0,28.81,SSE,158,5.5,7.6,67,0.00,,,0.00,WUHU216HW,2013-03-29 15:00:00,
2013-03-29 10:06:00,48.9,38.7,28.81,SSE,158,7.8,12.5,68,0.00,,,0.00,WUHU216HW,2013-03-29 15:06:00,
2013-03-29 10:11:00,49.4,38.9,28.81,SSE,158,10.5,12.5,67,0.00,,,0.00,WUHU216HW,2013-03-29 15:11:00,
2013-03-29 10:16:00,50.0,39.0,28.81,SE,135,6.7,10.5,66,0.00,,,0.00,WUHU216HW,2013-03-29 15:16:00,
2013-03-29 10:21:00,50.5,39.1,28.81,South,180,8.5,8.5,65,0.00,,,0.00,WUHU216HW,2013-03-29 15:21:00,
2013-03-29 10:26:00,50.9,39.5,28.81,SSE,158,4.4,8.5,65,0.00,,,0.00,WUHU216HW,2013-03-29 15:26:00,
2013-03-29 10:31:00,51.4,39.6,28.81,SSW,203,7.6,8.5,64,0.00,,,0.00,WUHU216HW,2013-03-29 15:31:00,
2013-03-29 10:36:00,51.8,39.5,28.81,South,180,10.7,10.9,63,0.00,,,0.00,WUHU216HW,2013-03-29 15:36:00,
2013-03-29 10:41:00,52.3,40.0,28.81,South,180,12.5,12.5,63,0.00,,,0.00,WUHU216HW,2013-03-29 15:41:00,
2013-03-29 10:46:00,52.7,40.4,28.81,South,180,5.5,12.5,63,0.00,,,0.00,WUHU216HW,2013-03-29 15:46:00,
2013-03-29 10:51:00,53.6,40.4,28.81,South,180,13.4,13.4,61,0.00,,,0.00,WUHU216HW,2013-03-29 15:51:00,
2013-03-29 10:56:00,54.1,40.9,28.81,SSE,158,7.6,13.4,61,0.00,,,0.00,WUHU216HW,2013-03-29 15:56:00,
2013-03-29 11:02:00,54.3,40.7,28.81,South,180,12.9,13.4,60,0.00,,,0.00,WUHU216HW,2013-03-29 16:02:00,
2013-03-29 11:07:00,55.0,40.9,28.81,SSE,158,11.6,12.9,59,0.00,,,0.00,WUHU216HW,2013-03-29 16:07:00,
2013-03-29 11:12:00,55.4,41.2,28.81,SSE,158,11.1,11.8,59,0.00,,,0.00,WUHU216HW,2013-03-29 16:12:00,
2013-03-29 11:17:00,55.7,41.1,28.81,SSE,158,11.8,12.0,58,0.00,,,0.00,WUHU216HW,2013-03-29 16:17:00,
2013-03-29 11:22:00,56.1,41.0,28.81,South,180,7.3,12.0,57,0.00,,,0.00,WUHU216HW,2013-03-29 16:22:00,
2013-03-29 11:27:00,56.8,41.2,28.81,South,180,10.0,12.7,56,0.00,,,0.00,WUHU216HW,2013-03-29 16:27:00,
2013-03-29 11:32:00,57.2,41.1,28.81,South,180,11.1,12.7,55,0.00,,,0.00,WUHU216HW,2013-03-29 16:32:00,
2013-03-29 11:38:00,57.7,41.1,28.81,South,180,13.8,18.1,54,0.00,,,0.00,WUHU216HW,2013-03-29 16:38:00,
2013-03-29 11:43:00,57.9,41.3,28.80,SE,135,15.4,18.1,54,0.00,,,0.00,WUHU216HW,2013-03-29 16:43:00,
2013-03-29 11:48:00,58.4,41.3,28.80,SSE,158,6.2,15.4,53,0.00,,,0.00,WUHU216HW,2013-03-29 16:48:00,
2013-03-29 11:53:00,58.8,41.2,28.80,South,180,11.8,11.8,52,0.00,,,0.00,WUHU216HW,2013-03-29 16:53:00,
2013-03-29 11:58:00,58.8,41.2,28.80,South,180,10.7,18.7,52,0.00,,,0.00,WUHU216HW,2013-03-29 16:58:00,
2013-03-29 12:03:00,59.3,41.2,28.79,South,180,14.0,18.7,51,0.00,,,0.00,WUHU216HW,2013-03-29 17:03:00,
2013-03-29 12:08:00,59.7,41.5,28.79,SSE,158,11.8,14.3,51,0.00,,,0.00,WUHU216HW,2013-03-29 17:08:00,
2013-03-29 12:13:00,60.0,41.4,28.79,SSE,158,11.1,14.0,50,0.00,,,0.00,WUHU216HW,2013-03-29 17:13:00,
2013-03-29 12:18:00,60.6,41.3,28.79,SSE,158,7.1,12.7,49,0.00,,,0.00,WUHU216HW,2013-03-29 17:18:00,
2013-03-29 12:23:00,60.6,41.3,28.78,SSE,158,13.1,13.1,49,0.00,,,0.00,WUHU216HW,2013-03-29 17:23:00,
2013-03-29 12:28:00,60.9,41.0,28.78,SSE,158,10.2,13.1,48,0.00,,,0.00,WUHU216HW,2013-03-29 17:28:00,
2013-03-29 12:33:00,61.3,40.8,28.78,SSE,158,13.6,20.5,47,0.00,,,0.00,WUHU216HW,2013-03-29 17:33:00,
2013-03-29 12:38:00,61.5,41.0,28.78,South,180,16.7,20.5,47,0.00,,,0.00,WUHU216HW,2013-03-29 17:38:00,
2013-03-29 12:43:00,61.8,40.7,28.78,South,180,10.5,16.7,46,0.00,,,0.00,WUHU216HW,2013-03-29 17:43:00,
2013-03-29 12:48:00,62.4,40.6,28.78,South,180,3.8,18.5,45,0.00,,,0.00,WUHU216HW,2013-03-29 17:48:00,
2013-03-29 12:53:00,62.4,40.0,28.77,SSE,158,10.0,18.5,44,0.00,,,0.00,WUHU216HW,2013-03-29 17:53:00,
2013-03-29 12:58:00,62.6,40.2,28.77,SSE,158,7.1,12.0,44,0.00,,,0.00,WUHU216HW,2013-03-29 17:58:00,
2013-03-29 13:03:00,63.1,40.1,28.77,SSE,158,7.6,7.6,43,0.00,,,0.00,WUHU216HW,2013-03-29 18:03:00,
2013-03-29 13:08:00,63.3,40.3,28.76,SSW,203,11.4,12.3,43,0.00,,,0.00,WUHU216HW,2013-03-29 18:08:00,
2013-03-29 13:13:00,63.6,40.0,28.76,SSE,158,17.6,17.6,42,0.00,,,0.00,WUHU216HW,2013-03-29 18:13:00,
2013-03-29 13:19:00,63.8,40.2,28.76,South,180,18.1,18.7,42,0.00,,,0.00,WUHU216HW,2013-03-29 18:19:00,
2013-03-29 13:24:00,64.0,40.3,28.76,SSE,158,10.5,18.7,42,0.00,,,0.00,WUHU216HW,2013-03-29 18:24:00,
2013-03-29 13:29:00,64.5,40.2,28.76,SSE,158,8.9,16.5,41,0.00,,,0.00,WUHU216HW,2013-03-29 18:29:00,
2013-03-29 13:34:00,64.7,40.4,28.76,SSE,158,18.7,18.7,41,0.00,,,0.00,WUHU216HW,2013-03-29 18:34:00,
2013-03-29 13:39:00,64.9,40.0,28.75,South,180,6.2,18.7,40,0.00,,,0.00,WUHU216HW,2013-03-29 18:39:00,
2013-03-29 13:44:00,65.1,40.2,28.75,SSE,158,16.1,16.1,40,0.00,,,0.00,WUHU216HW,2013-03-29 18:44:00,
2013-03-29 13:49:00,65.4,40.5,28.75,South,180,14.3,16.1,40,0.00,,,0.00,WUHU216HW,2013-03-29 18:49:00,
2013-03-29 13:54:00,65.8,40.1,28.75,South,180,9.1,16.1,39,0.00,,,0.00,WUHU216HW,2013-03-29 18:54:00,
2013-03-29 13:59:00,65.8,40.1,28.74,SSE,158,6.7,14.0,39,0.00,,,0.00,WUHU216HW,2013-03-29 18:59:00,
2013-03-29 14:04:00,66.2,41.1,28.74,SE,135,4.2,9.1,40,0.00,,,0.00,WUHU216HW,2013-03-29 19:04:00,
2013-03-29 14:09:00,66.7,40.2,28.74,SSW,203,18.7,20.8,38,0.00,,,0.00,WUHU216HW,2013-03-29 19:09:00,
2013-03-29 14:14:00,66.7,39.4,28.74,SSW,203,17.6,20.8,37,0.00,,,0.00,WUHU216HW,2013-03-29 19:14:00,
2013-03-29 14:19:00,66.7,39.4,28.74,SW,225,10.2,18.7,37,0.00,,,0.00,WUHU216HW,2013-03-29 19:19:00,
2013-03-29 14:24:00,66.9,39.6,28.73,South,180,18.3,18.3,37,0.00,,,0.00,WUHU216HW,2013-03-29 19:24:00,
2013-03-29 14:29:00,67.1,39.7,28.73,South,180,8.5,18.3,37,0.00,,,0.00,WUHU216HW,2013-03-29 19:29:00,
2013-03-29 14:34:00,67.2,39.2,28.73,SSW,203,11.8,15.4,36,0.00,,,0.00,WUHU216HW,2013-03-29 19:34:00,
2013-03-29 14:39:00,67.6,39.5,28.73,SSW,203,7.8,14.0,36,0.00,,,0.00,WUHU216HW,2013-03-29 19:39:00,
2013-03-29 14:44:00,67.6,39.5,28.73,SSW,203,17.4,18.1,36,0.00,,,0.00,WUHU216HW,2013-03-29 19:44:00,
2013-03-29 14:50:00,67.8,38.9,28.72,SSE,158,11.4,18.1,35,0.00,,,0.00,WUHU216HW,2013-03-29 19:50:00,
2013-03-29 14:55:00,67.8,39.6,28.72,SSE,158,8.0,17.0,36,0.00,,,0.00,WUHU216HW,2013-03-29 19:55:00,
2013-03-29 15:00:00,68.3,40.3,28.72,South,180,9.6,11.4,36,0.00,,,0.00,WUHU216HW,2013-03-29 20:00:00,
2013-03-29 15:05:00,68.7,39.7,28.71,SE,135,8.0,11.8,35,0.00,,,0.00,WUHU216HW,2013-03-29 20:05:00,
2013-03-29 15:10:00,68.7,39.7,28.71,South,180,12.0,12.5,35,0.00,,,0.00,WUHU216HW,2013-03-29 20:10:00,
2013-03-29 15:15:00,68.9,39.9,28.71,South,180,11.6,12.5,35,0.00,,,0.00,WUHU216HW,2013-03-29 20:15:00,
2013-03-29 15:20:00,69.0,40.0,28.71,SE,135,0.0,11.6,35,0.00,,,0.00,WUHU216HW,2013-03-29 20:20:00,
2013-03-29 15:25:00,69.2,40.2,28.70,South,180,12.5,12.5,35,0.00,,,0.00,WUHU216HW,2013-03-29 20:25:00,
2013-03-29 15:30:00,69.2,40.2,28.70,SSW,203,8.9,12.5,35,0.00,,,0.00,WUHU216HW,2013-03-29 20:30:00,
2013-03-29 15:35:00,69.2,40.2,28.70,South,180,8.9,11.1,35,0.00,,,0.00,WUHU216HW,2013-03-29 20:35:00,
2013-03-29 15:40:00,69.2,40.2,28.70,SE,135,7.3,10.2,35,0.00,,,0.00,WUHU216HW,2013-03-29 20:40:00,
2013-03-29 15:45:00,69.2,39.5,28.70,SSE,158,8.2,16.5,34,0.00,,,0.00,WUHU216HW,2013-03-29 20:45:00,
2013-03-29 15:50:00,69.2,39.5,28.70,South,180,11.8,16.5,34,0.00,,,0.00,WUHU216HW,2013-03-29 20:50:00,
2013-03-29 15:56:00,69.2,39.5,28.69,South,180,0.0,13.8,34,0.00,,,0.00,WUHU216HW,2013-03-29 20:56:00,
2013-03-29 16:01:00,69.4,39.6,28.69,South,180,10.5,12.0,34,0.00,,,0.00,WUHU216HW,2013-03-29 21:01:00,
2013-03-29 16:06:00,69.4,38.9,28.69,SSW,203,7.6,16.3,33,0.00,,,0.00,WUHU216HW,2013-03-29 21:06:00,
2013-03-29 16:11:00,69.6,39.0,28.69,South,180,6.0,16.3,33,0.00,,,0.00,WUHU216HW,2013-03-29 21:11:00,
2013-03-29 16:16:00,69.6,39.0,28.69,SSW,203,14.0,14.0,33,0.00,,,0.00,WUHU216HW,2013-03-29 21:16:00,
2013-03-29 16:22:00,69.6,38.3,28.68,SSW,203,17.0,17.4,32,0.00,,,0.00,WUHU216HW,2013-03-29 21:22:00,
2013-03-29 16:27:00,69.6,38.3,28.68,SSW,203,9.8,17.4,32,0.00,,,0.00,WUHU216HW,2013-03-29 21:27:00,
2013-03-29 16:32:00,69.6,38.3,28.68,SSW,203,14.0,17.0,32,0.00,,,0.00,WUHU216HW,2013-03-29 21:32:00,
2013-03-29 16:37:00,69.9,38.6,28.68,South,180,8.2,14.5,32,0.00,,,0.00,WUHU216HW,2013-03-29 21:37:00,
2013-03-29 16:42:00,69.9,37.9,28.68,SSW,203,12.5,14.0,31,0.00,,,0.00,WUHU216HW,2013-03-29 21:42:00,
2013-03-29 16:47:00,69.8,37.7,28.68,South,180,10.7,14.7,31,0.00,,,0.00,WUHU216HW,2013-03-29 21:47:00,
2013-03-29 16:52:00,69.6,37.6,28.68,SSW,203,16.1,16.1,31,0.00,,,0.00,WUHU216HW,2013-03-29 21:52:00,
2013-03-29 16:57:00,69.6,37.6,28.68,South,180,16.7,16.7,31,0.00,,,0.00,WUHU216HW,2013-03-29 21:57:00,
2013-03-29 17:02:00,69.6,37.6,28.68,South,180,11.8,17.8,31,0.00,,,0.00,WUHU216HW,2013-03-29 22:02:00,
2013-03-29 17:07:00,69.6,38.3,28.68,South,180,10.7,17.8,32,0.00,,,0.00,WUHU216HW,2013-03-29 22:07:00,
2013-03-29 17:12:00,69.6,38.3,28.68,South,180,8.2,12.5,32,0.00,,,0.00,WUHU216HW,2013-03-29 22:12:00,
2013-03-29 17:17:00,69.6,38.3,28.68,South,180,16.5,16.5,32,0.00,,,0.00,WUHU216HW,2013-03-29 22:17:00,
2013-03-29 17:22:00,69.4,38.1,28.68,South,180,7.3,16.5,32,0.00,,,0.00,WUHU216HW,2013-03-29 22:22:00,
2013-03-29 17:27:00,69.4,38.1,28.67,SSE,158,13.6,16.5,32,0.00,,,0.00,WUHU216HW,2013-03-29 22:27:00,
2013-03-29 17:32:00,69.6,38.3,28.67,South,180,10.2,16.7,32,0.00,,,0.00,WUHU216HW,2013-03-29 22:32:00,
2013-03-29 17:38:00,69.4,38.1,28.68,SSW,203,10.7,16.7,32,0.00,,,0.00,WUHU216HW,2013-03-29 22:38:00,
2013-03-29 17:43:00,69.6,38.3,28.68,South,180,12.5,12.5,32,0.00,,,0.00,WUHU216HW,2013-03-29 22:43:00,
2013-03-29 17:48:00,69.4,37.4,28.68,SSW,203,12.7,12.9,31,0.00,,,0.00,WUHU216HW,2013-03-29 22:48:00,
2013-03-29 17:53:00,69.4,37.4,28.67,South,180,15.4,15.4,31,0.00,,,0.00,WUHU216HW,2013-03-29 22:53:00,
2013-03-29 17:58:00,69.0,37.1,28.67,South,180,13.8,15.4,31,0.00,,,0.00,WUHU216HW,2013-03-29 22:58:00,
2013-03-29 18:03:00,69.0,37.1,28.67,South,180,13.8,15.2,31,0.00,,,0.00,WUHU216HW,2013-03-29 23:03:00,
2013-03-29 18:08:00,68.7,37.5,28.67,SSW,203,8.7,13.8,32,0.00,,,0.00,WUHU216HW,2013-03-29 23:08:00,
2013-03-29 18:13:00,67.8,36.7,28.67,South,180,7.1,11.8,32,0.00,,,0.00,WUHU216HW,2013-03-29 23:13:00,
2013-03-29 18:18:00,67.6,36.5,28.67,South,180,8.0,13.8,32,0.00,,,0.00,WUHU216HW,2013-03-29 23:18:00,
2013-03-29 18:24:00,67.1,36.1,28.67,South,180,11.1,13.8,32,0.00,,,0.00,WUHU216HW,2013-03-29 23:24:00,
2013-03-29 18:29:00,66.7,35.8,28.66,South,180,9.1,13.1,32,0.00,,,0.00,WUHU216HW,2013-03-29 23:29:00,
2013-03-29 18:34:00,66.3,36.2,28.66,South,180,11.1,13.1,33,0.00,,,0.00,WUHU216HW,2013-03-29 23:34:00,
2013-03-29 18:39:00,65.8,35.8,28.66,South,180,8.0,11.4,33,0.00,,,0.00,WUHU216HW,2013-03-29 23:39:00,
2013-03-29 18:44:00,65.4,35.4,28.66,South,180,6.9,11.1,33,0.00,,,0.00,WUHU216HW,2013-03-29 23:44:00,
2013-03-29 18:49:00,65.1,35.1,28.66,SSE,158,4.2,8.0,33,0.00,,,0.00,WUHU216HW,2013-03-29 23:49:00,
2013-03-29 18:54:00,64.9,35.7,28.66,South,180,3.5,6.7,34,0.00,,,0.00,WUHU216HW,2013-03-29 23:54:00,
2013-03-29 18:59:00,64.5,35.4,28.66,South,180,6.7,8.7,34,0.00,,,0.00,WUHU216HW,2013-03-29 23:59:00,
2013-03-29 19:04:00,64.5,35.0,28.66,South,180,7.3,9.1,34,0.00,,,0.00,WUHU216HW,2013-03-30 00:04:00,
2013-03-29 19:09:00,64.0,34.9,28.66,South,180,8.7,9.1,34,0.00,,,0.00,WUHU216HW,2013-03-30 00:09:00,
2013-03-29 19:14:00,63.6,35.3,28.66,South,180,7.3,8.7,35,0.00,,,0.00,WUHU216HW,2013-03-30 00:14:00,
2013-03-29 19:19:00,63.6,35.3,28.66,SSE,158,6.4,8.7,35,0.00,,,0.00,WUHU216HW,2013-03-30 00:19:00,
2013-03-29 19:24:00,63.3,34.9,28.66,SSE,158,7.1,8.7,35,0.00,,,0.00,WUHU216HW,2013-03-30 00:24:00,
2013-03-29 19:29:00,63.1,34.8,28.66,SSE,158,5.3,7.1,35,0.00,,,0.00,WUHU216HW,2013-03-30 00:29:00,
2013-03-29 19:34:00,62.7,34.5,28.66,SSE,158,6.9,6.9,35,0.00,,,0.00,WUHU216HW,2013-03-30 00:34:00,
2013-03-29 19:40:00,62.4,34.8,28.65,SSE,158,3.1,6.9,36,0.00,,,0.00,WUHU216HW,2013-03-30 00:40:00,
2013-03-29 19:45:00,62.0,34.5,28.65,SSE,158,3.8,6.9,36,0.00,,,0.00,WUHU216HW,2013-03-30 00:45:00,
2013-03-29 19:50:00,61.7,34.2,28.65,SSE,158,5.8,6.4,36,0.00,,,0.00,WUHU216HW,2013-03-30 00:50:00,
2013-03-29 19:55:00,61.3,33.9,28.65,SSE,158,0.0,5.8,36,0.00,,,0.00,WUHU216HW,2013-03-30 00:55:00,
2013-03-29 20:00:00,60.9,34.3,28.65,SSE,158,5.8,5.8,37,0.00,,,0.00,WUHU216HW,2013-03-30 01:00:00,
2013-03-29 20:05:00,60.6,33.9,28.65,SSE,158,7.1,7.1,37,0.00,,,0.00,WUHU216HW,2013-03-30 01:05:00,
2013-03-29 20:10:00,60.4,33.8,28.65,SSE,158,7.8,7.8,37,0.00,,,0.00,WUHU216HW,2013-03-30 01:10:00,
2013-03-29 20:15:00,60.0,33.5,28.65,SSE,158,2.9,7.8,37,0.00,,,0.00,WUHU216HW,2013-03-30 01:15:00,
2013-03-29 20:20:00,59.9,34.0,28.65,SSE,158,7.3,7.3,38,0.00,,,0.00,WUHU216HW,2013-03-30 01:20:00,
2013-03-29 20:25:00,59.7,33.9,28.65,SSE,158,0.0,7.3,38,0.00,,,0.00,WUHU216HW,2013-03-30 01:25:00,
2013-03-29 20:30:00,59.3,33.6,28.65,SSE,158,6.9,6.9,38,0.00,,,0.00,WUHU216HW,2013-03-30 01:30:00,
2013-03-29 20:35:00,59.1,33.4,28.65,SSE,158,6.4,6.9,38,0.00,,,0.00,WUHU216HW,2013-03-30 01:35:00,
2013-03-29 20:40:00,58.8,33.1,28.64,SSE,158,8.7,8.7,38,0.00,,,0.00,WUHU216HW,2013-03-30 01:40:00,
2013-03-29 20:45:00,58.8,33.8,28.65,SSE,158,5.1,8.7,39,0.00,,,0.00,WUHU216HW,2013-03-30 01:45:00,
2013-03-29 20:51:00,58.8,33.8,28.65,SSE,158,0.0,5.8,39,0.00,,,0.00,WUHU216HW,2013-03-30 01:51:00,
2013-03-29 20:56:00,58.6,33.6,28.65,SSE,158,7.3,8.5,39,0.00,,,0.00,WUHU216HW,2013-03-30 01:56:00,
2013-03-29 21:01:00,58.4,33.5,28.65,SSE,158,6.7,8.5,39,0.00,,,0.00,WUHU216HW,2013-03-30 02:01:00,
2013-03-29 21:06:00,58.4,34.2,28.65,SSE,158,12.3,12.3,40,0.00,,,0.00,WUHU216HW,2013-03-30 02:06:00,
2013-03-29 21:11:00,58.4,34.2,28.64,SSE,158,6.9,12.3,40,0.00,,,0.00,WUHU216HW,2013-03-30 02:11:00,
2013-03-29 21:17:00,58.2,34.0,28.65,SSE,158,7.1,12.3,40,0.00,,,0.00,WUHU216HW,2013-03-30 02:17:00,
2013-03-29 21:22:00,58.2,34.0,28.65,SSE,158,7.6,8.5,40,0.00,,,0.00,WUHU216HW,2013-03-30 02:22:00,
2013-03-29 21:27:00,58.2,34.0,28.65,SSE,158,6.9,7.6,40,0.00,,,0.00,WUHU216HW,2013-03-30 02:27:00,
2013-03-29 21:32:00,58.4,34.7,28.65,South,180,6.9,9.1,41,0.00,,,0.00,WUHU216HW,2013-03-30 02:32:00,
2013-03-29 21:37:00,58.4,34.7,28.65,SSE,158,12.3,12.3,41,0.00,,,0.00,WUHU216HW,2013-03-30 02:37:00,
2013-03-29 21:42:00,58.6,34.3,28.66,South,180,11.4,12.3,40,0.00,,,0.00,WUHU216HW,2013-03-30 02:42:00,
2013-03-29 21:47:00,58.6,34.3,28.65,South,180,10.0,13.4,40,0.00,,,0.00,WUHU216HW,2013-03-30 02:47:00,
2013-03-29 21:52:00,58.8,34.5,28.66,SSE,158,12.7,13.4,40,0.00,,,0.00,WUHU216HW,2013-03-30 02:52:00,
2013-03-29 21:57:00,58.8,34.5,28.66,South,180,12.5,12.9,40,0.00,,,0.00,WUHU216HW,2013-03-30 02:57:00,
2013-03-29 22:02:00,58.8,34.5,28.65,South,180,8.9,12.9,40,0.00,,,0.00,WUHU216HW,2013-03-30 03:02:00,
2013-03-29 22:07:00,58.8,34.5,28.66,SSE,158,5.5,11.6,40,0.00,,,0.00,WUHU216HW,2013-03-30 03:07:00,
2013-03-29 22:12:00,58.6,34.9,28.65,SSE,158,9.8,9.8,41,0.00,,,0.00,WUHU216HW,2013-03-30 03:12:00,
2013-03-29 22:17:00,57.9,34.3,28.64,SSE,158,11.6,14.3,41,0.00,,,0.00,WUHU216HW,2013-03-30 03:17:00,
2013-03-29 22:22:00,57.7,34.7,28.64,South,180,12.3,14.3,42,0.00,,,0.00,WUHU216HW,2013-03-30 03:22:00,
2013-03-29 22:27:00,57.3,34.3,28.64,South,180,10.5,13.6,42,0.00,,,0.00,WUHU216HW,2013-03-30 03:27:00,
2013-03-29 22:32:00,57.0,34.0,28.64,South,180,13.6,13.6,42,0.00,,,0.00,WUHU216HW,2013-03-30 03:32:00,
2013-03-29 22:37:00,57.0,34.0,28.64,South,180,8.5,13.6,42,0.00,,,0.00,WUHU216HW,2013-03-30 03:37:00,
2013-03-29 22:43:00,57.0,34.0,28.64,SSE,158,14.7,14.7,42,0.00,,,0.00,WUHU216HW,2013-03-30 03:43:00,
2013-03-29 22:48:00,57.0,34.0,28.64,SSE,158,12.9,14.7,42,0.00,,,0.00,WUHU216HW,2013-03-30 03:48:00,
2013-03-29 22:53:00,57.0,34.0,28.64,SSE,158,6.9,14.7,42,0.00,,,0.00,WUHU216HW,2013-03-30 03:53:00,
2013-03-29 22:58:00,56.8,33.8,28.64,SSE,158,12.5,12.5,42,0.00,,,0.00,WUHU216HW,2013-03-30 03:58:00,
2013-03-29 23:00:00,56.8,33.8,28.65,SSE,158,5.1,12.5,42,0.00,,,0.00,WUHU216HW,2013-03-30 04:00:00,
2013-03-29 23:01:00,56.8,33.8,28.64,SSE,158,4.2,12.5,42,0.00,,,0.00,WUHU216HW,2013-03-30 04:01:00,
2013-03-29 23:06:00,56.4,33.5,28.65,SSE,158,0.0,12.5,42,0.00,,,0.00,WUHU216HW,2013-03-30 04:06:00,
2013-03-29 23:11:00,56.4,33.5,28.66,SSE,158,2.0,8.0,42,0.00,,,0.00,WUHU216HW,2013-03-30 04:11:00,
2013-03-29 23:16:00,56.1,33.2,28.65,SSE,158,0.0,8.9,42,0.00,,,0.00,WUHU216HW,2013-03-30 04:16:00,
2013-03-29 23:22:00,56.1,33.2,28.66,SSE,158,1.5,8.9,42,0.00,,,0.00,WUHU216HW,2013-03-30 04:22:00,
2013-03-29 23:27:00,55.9,33.6,28.66,SSE,158,0.0,5.5,43,0.00,,,0.00,WUHU216HW,2013-03-30 04:27:00,
2013-03-29 23:32:00,55.7,33.4,28.66,SE,135,0.6,0.6,43,0.00,,,0.00,WUHU216HW,2013-03-30 04:32:00,
2013-03-29 23:37:00,55.7,33.4,28.66,SE,135,0.0,4.9,43,0.00,,,0.00,WUHU216HW,2013-03-30 04:37:00,
2013-03-29 23:42:00,55.5,33.2,28.66,SE,135,0.0,4.9,43,0.00,,,0.00,WUHU216HW,2013-03-30 04:42:00,
2013-03-29 23:47:00,55.4,33.1,28.66,SSE,158,0.0,4.4,43,0.00,,,0.00,WUHU216HW,2013-03-30 04:47:00,
2013-03-29 23:52:00,55.2,32.9,28.66,SSE,158,6.4,6.4,43,0.00,,,0.00,WUHU216HW,2013-03-30 04:52:00,
2013-03-29 23:57:00,55.2,33.5,28.66,SE,135,4.9,6.4,44,0.00,,,0.00,WUHU216HW,2013-03-30 04:57:00,